Location: Grand Mazuras
(45.9128°N, 1.7636°E)
Time: 16:49:49
(UTC+00:00)

Cosmos 1408 Rocket - Pass Details

Date: 18 April 2021
Orbit: 600 x 631 km, 82.6° (Epoch: 12 May)

Event Time Altitude Azimuth Distance (km) Brightness Sun altitude
Rises 22:00:49 0° 350° (N) 2,863 8.0 -27.7°
Reaches altitude 10° 22:03:02 10° 350° (N) 1,956 7.0 -27.9°
Enters shadow 22:06:08 46° 347° (NNW) 812 4.4 -28.2°
